This is the latest recevied weather packets stored in our database for station/object K4DFD-13. If no packets are shown the sender has not sent any weather packets the latest 10 day(s).
| Time | Temp. | Humidity | Pressure | Rain* | Wind** | Luminosity | Snow |
|---|---|---|---|---|---|---|---|
| 1777752556 | 12.78° C | 43% | 1013 hPa | 0 mm | - | - | - |
| 1777752256 | 12.78° C | 46% | 1013 hPa | 0 mm | - | - | - |
| 1777751955 | 12.78° C | 45% | 1013 hPa | 0 mm | - | - | - |
| 1777751655 | 12.78° C | 44% | 1012.5 hPa | 0 mm | - | - | - |
| 1777751354 | 12.22° C | 46% | 1013 hPa | 0 mm | - | - | - |
| 1777751054 | 12.22° C | 44% | 1013 hPa | 0 mm | - | - | - |
| 1777750754 | 12.22° C | 44% | 1013 hPa | 0 mm | - | - | - |
| 1777750453 | 12.22° C | 44% | 1013.1 hPa | 0 mm | - | - | - |
| 1777750152 | 12.22° C | 45% | 1013.1 hPa | 0 mm | - | - | - |
| 1777749852 | 12.22° C | 45% | 1013.1 hPa | 0 mm | - | - | - |
| 1777749552 | 12.78° C | 46% | 1013.2 hPa | 0 mm | - | - | - |
| 1777749251 | 13.33° C | 43% | 1013 hPa | 0 mm | - | - | - |
| 1777748951 | 13.89° C | 44% | 1012.8 hPa | 0 mm | - | - | - |
| 1777748651 | 14.44° C | 42% | 1013 hPa | 0 mm | - | - | - |
| 1777748341 | 13.89° C | 44% | 1012.7 hPa | 0 mm | - | - | - |
| 1777748050 | 13.89° C | 45% | 1012.7 hPa | 0 mm | - | - | - |
| 1777747750 | 13.89° C | 43% | 1013 hPa | 0 mm | - | - | - |
| 1777747450 | 14.44° C | 43% | 1012.7 hPa | 0 mm | - | - | - |
| 1777747149 | 13.89° C | 42% | 1012.4 hPa | 0 mm | - | - | - |
| 1777746849 | 13.89° C | 44% | 1012.8 hPa | 0 mm | - | - | - |
| 1777746548 | 13.89° C | 43% | 1013 hPa | 0 mm | - | - | - |
| 1777746248 | 13.33° C | 44% | 1012.5 hPa | 0 mm | - | - | - |
| 1777745948 | 13.33° C | 44% | 1013.2 hPa | 0 mm | - | - | - |
| 1777745648 | 13.33° C | 43% | 1012.9 hPa | 0 mm | - | - | - |
| 1777745347 | 13.33° C | 43% | 1012.9 hPa | 0 mm | - | - | - |
* Rain latest hour (hover to see other rain measurements)
** Current wind speed in m/s (hover to see current wind gust speed)